| time (UTC) | temp F | wind direction | speed MPH | gust MPH | rain 1hr in | rain 24hr in | rain mn in | humidity % | barometer mb |
| 20260505060341 | 48 | 150 | 0.0 | 0.0 | 0.00 | 0.00 | 0.00 | 87 | 785.3 |
| 20260505053328 | 48 | 150 | 0.0 | 0.0 | 0.00 | 0.00 | 0.00 | 86 | 785.4 |
| 20260505050338 | 49 | 150 | 0.0 | 0.0 | 0.00 | 0.00 | 0.00 | 85 | 785.5 |
| 20260505040328 | 52 | 150 | 0.0 | 0.0 | 0.00 | 0.00 | 0.00 | 82 | 785.5 |
| 20260505033355 | 53 | 150 | 0.0 | 0.0 | 0.00 | 0.00 | 0.00 | 79 | 785.6 |
| 20260505030327 | 55 | 150 | 0.0 | 0.0 | 0.00 | 0.00 | 0.00 | 74 | 785.6 |
| 20260505023324 | 57 | 150 | 0.0 | 0.0 | 0.00 | 0.00 | 0.00 | 69 | 785.6 |
| 20260505020401 | 57 | 150 | 0.0 | 0.0 | 0.00 | 0.00 | 0.00 | 67 | 785.7 |
| 20260505013334 | 58 | 150 | 0.0 | 0.0 | 0.00 | 0.00 | 0.00 | 66 | 785.7 |
| 20260505010337 | 59 | 139 | 0.0 | 0.0 | 0.00 | 0.00 | 0.00 | 63 | 785.7 |
| 20260505003334 | 59 | 159 | 0.0 | 0.0 | 0.00 | 0.00 | 0.00 | 63 | 785.7 |
| 20260505000329 | 61 | 159 | 0.0 | 0.0 | 0.00 | 0.00 | 0.00 | 59 | 785.6 |
| 20260504233333 | 63 | 159 | 0.0 | 0.0 | 0.00 | 0.00 | 0.00 | 54 | 785.6 |
| 20260504230334 | 63 | 200 | 0.0 | 0.0 | 0.00 | 0.00 | 0.00 | 53 | 785.7 |
| 20260504223342 | 63 | 208 | 0.0 | 0.0 | 0.00 | 0.00 | 0.00 | 54 | 785.7 |
| 20260504220328 | 63 | 115 | 0.0 | 0.0 | 0.00 | 0.00 | 0.00 | 55 | 785.7 |
| 20260504213347 | 63 | 179 | 0.0 | 0.0 | 0.00 | 0.00 | 0.00 | 56 | 785.8 |
| 20260504210341 | 63 | 111 | 0.0 | 0.0 | 0.00 | 0.00 | 0.00 | 57 | 785.8 |
| 20260504203351 | 63 | 175 | 0.0 | 0.0 | 0.00 | 0.00 | 0.00 | 58 | 785.8 |
| 20260504200321 | 60 | 102 | 0.0 | 0.0 | 0.00 | 0.00 | 0.00 | 63 | 785.9 |
| 20260504193341 | 59 | 210 | 0.0 | 0.0 | 0.00 | 0.00 | 0.00 | 65 | 786.0 |
| 20260504190351 | 58 | 114 | 0.0 | 0.0 | 0.00 | 0.00 | 0.00 | 68 | 786.0 |
| 20260504183328 | 56 | 109 | 0.0 | 0.0 | 0.00 | 0.00 | 0.00 | 73 | 786.1 |
| 20260504180322 | 56 | 204 | 0.0 | 0.0 | 0.00 | 0.00 | 0.00 | 73 | 786.1 |
| 20260504173336 | 56 | 169 | 0.0 | 0.0 | 0.00 | 0.00 | 0.00 | 73 | 786.1 |
| 20260504170332 | 54 | 270 | 0.0 | 0.0 | 0.00 | 0.00 | 0.00 | 78 | 786.2 |
| 20260504160355 | 52 | 199 | 0.0 | 0.0 | 0.00 | 0.00 | 0.00 | 81 | 786.2 |
| 20260504150328 | 50 | 208 | 0.0 | 0.0 | 0.00 | 0.00 | 0.00 | 93 | 786.1 |
| 20260504140359 | 45 | 294 | 0.0 | 0.0 | 0.00 | 0.00 | 0.00 | 94 | 786.2 |
| 20260504130327 | 45 | 317 | 0.0 | 0.0 | 0.00 | 0.00 | 0.00 | 93 | 786.1 |
| 20260504110325 | 45 | 134 | 0.0 | 0.0 | 0.00 | 0.00 | 0.00 | 91 | 786.0 |
| 20260504100324 | 43 | 134 | 0.0 | 0.0 | 0.00 | 0.00 | 0.00 | 87 | 786.0 |
| 20260504080338 | 44 | 204 | 0.0 | 0.0 | 0.00 | 0.00 | 0.00 | 73 | 786.2 |
| 20260504070328 | 46 | 217 | 0.0 | 0.0 | 0.00 | 0.00 | 0.00 | 70 | 786.3 |